NR0A-4 Weather Reports


Display with metric or nautical units.
time (UTC)temp
F
wind
direction
speed
MPH
gust
MPH
rain 1hr
in
rain 24hr
in
rain mn
in
humidity
%
barometer
mb
20260504130505 53 203 4.0 7.0 0.00 0.01 0.00 66 1002.1
20260504110505 46 217 0.0 0.0 0.00 0.01 0.00 70 1002.3
20260504100504 49 227 0.0 0.0 0.00 0.01 0.00 66 1002.8
20260504082004 53 190 0.0 0.0 0.00 0.01 0.00 57 1003.1
20260504081504 53 190 0.0 0.0 0.00 0.01 0.00 56 1003.1
20260504081004 53 190 0.0 0.0 0.00 0.01 0.00 56 1003.2
20260504080504 53 190 0.0 0.0 0.00 0.01 0.00 57 1003.2
20260504050504 56 132 0.0 0.0 0.00 0.01 0.00 52 1005.6
20260504050003 57 132 0.0 0.0 0.00 0.01 0.00 52 1005.6
20260504045503 57 132 0.0 0.0 0.00 0.01 0.01 52 1005.8
20260504045003 57 132 0.0 0.0 0.00 0.01 0.01 51 1005.9
20260504044504 57 132 0.0 0.0 0.00 0.01 0.01 50 1006.0
20260504044003 57 132 0.0 0.0 0.00 0.01 0.01 51 1006.0
20260504043503 57 132 0.0 1.0 0.00 0.01 0.01 50 1006.0
20260504043004 58 138 0.0 0.0 0.00 0.01 0.01 50 1006.1
20260504042503 58 138 0.0 0.0 0.00 0.01 0.01 50 1006.1
20260504042003 58 181 0.0 0.0 0.00 0.01 0.01 49 1006.2
20260504041503 58 181 0.0 0.0 0.00 0.01 0.01 48 1006.3
20260504041004 58 181 0.0 0.0 0.00 0.01 0.01 48 1006.4
20260504040503 58 181 0.0 0.0 0.00 0.01 0.01 50 1006.5
20260504040003 59 153 0.0 0.0 0.00 0.01 0.01 50 1006.5
20260504035004 59 150 0.0 2.0 0.00 0.01 0.01 51 1006.6
20260504034504 59 130 0.0 3.0 0.00 0.01 0.01 54 1006.6
20260504034004 59 123 0.0 0.0 0.00 0.01 0.01 52 1006.7
20260504033504 60 120 2.0 3.0 0.00 0.01 0.01 52 1006.7
20260504033004 60 161 0.0 0.0 0.00 0.01 0.01 48 1006.7
20260504032504 60 161 0.0 0.0 0.00 0.01 0.01 48 1006.6
20260504032005 61 161 0.0 0.0 0.00 0.01 0.01 48 1006.6
20260504031504 61 161 0.0 0.0 0.00 0.01 0.01 48 1006.7
20260504031004 62 162 0.0 0.0 0.00 0.01 0.01 47 1006.6
20260504030504 62 162 0.0 0.0 0.00 0.01 0.01 46 1006.7
20260504030004 62 222 0.0 0.0 0.00 0.01 0.01 43 1006.7
20260504025504 62 222 0.0 0.0 0.00 0.01 0.01 43 1006.7
20260504025004 62 222 0.0 0.0 0.00 0.01 0.01 42 1006.7
20260504024504 62 222 0.0 0.0 0.00 0.01 0.01 43 1006.7
20260504024004 62 222 0.0 0.0 0.00 0.01 0.01 43 1006.8
20260504023504 62 222 0.0 0.0 0.00 0.01 0.01 44 1006.8
20260504023004 62 222 0.0 0.0 0.00 0.01 0.01 43 1006.9
20260504022504 62 222 0.0 0.0 0.00 0.01 0.01 44 1006.8
20260504022004 63 222 0.0 0.0 0.00 0.01 0.01 43 1006.8
20260504021504 63 222 0.0 0.0 0.00 0.01 0.01 44 1006.8
20260504021004 63 222 0.0 0.0 0.00 0.01 0.01 43 1006.8
20260504020504 63 222 0.0 0.0 0.00 0.01 0.01 44 1006.9
20260504020004 63 222 0.0 0.0 0.00 0.01 0.01 41 1006.9
20260504015504 64 222 0.0 0.0 0.00 0.01 0.01 42 1007.0
20260504015004 64 222 0.0 0.0 0.00 0.01 0.01 42 1007.1
20260504014504 65 222 0.0 0.0 0.00 0.01 0.01 40 1007.2
20260504014004 65 222 0.0 0.0 0.00 0.01 0.01 40 1007.2
20260504013504 66 223 0.0 0.0 0.00 0.01 0.01 40 1007.2
20260504013004 66 223 0.0 0.0 0.00 0.01 0.01 39 1007.2
20260504012503 67 224 0.0 0.0 0.00 0.01 0.01 38 1007.2
20260504012004 67 225 0.0 1.0 0.00 0.01 0.01 37 1007.3
20260504011504 68 227 0.0 0.0 0.00 0.01 0.01 37 1007.3
20260504011004 68 217 0.0 0.0 0.00 0.01 0.01 36 1007.4
20260504010505 69 215 0.0 0.0 0.00 0.01 0.01 36 1007.5
20260504010004 69 205 0.0 1.0 0.00 0.01 0.01 36 1007.5
20260504005504 70 231 0.0 3.0 0.00 0.01 0.01 35 1007.6
20260504005004 70 224 2.0 3.0 0.00 0.01 0.01 33 1007.6
20260504004504 70 203 2.0 3.0 0.00 0.01 0.01 34 1007.8
20260504004004 71 212 3.0 6.0 0.00 0.01 0.01 33 1007.8
20260504003504 71 219 3.0 6.0 0.00 0.01 0.01 33 1007.8
20260504003004 71 222 3.0 7.0 0.00 0.01 0.01 33 1007.8
20260504002504 72 204 4.0 8.0 0.00 0.01 0.01 32 1007.9
20260504002004 72 207 4.0 9.0 0.00 0.01 0.01 32 1008.0
20260504001504 72 192 3.0 7.0 0.00 0.01 0.01 31 1008.0
20260504001004 73 195 4.0 6.0 0.00 0.01 0.01 30 1008.0
20260504000505 74 204 4.0 7.0 0.00 0.01 0.01 30 1008.1
20260504000004 74 191 2.0 7.0 0.00 0.01 0.01 29 1008.1
20260503235504 74 206 3.0 6.0 0.00 0.01 0.01 30 1008.1
20260503235004 74 197 3.0 6.0 0.00 0.01 0.01 30 1008.2
20260503234503 73 228 5.0 6.0 0.00 0.01 0.01 30 1008.2
20260503234004 73 202 2.0 5.0 0.00 0.01 0.01 31 1008.3
20260503233504 73 217 2.0 3.0 0.00 0.01 0.01 31 1008.3
20260503233004 73 223 1.0 3.0 0.00 0.01 0.01 31 1008.4
20260503232504 73 287 1.0 5.0 0.00 0.01 0.01 31 1008.4
20260503232004 73 216 1.0 3.0 0.00 0.01 0.01 32 1008.5
20260503231504 73 209 3.0 6.0 0.00 0.01 0.01 31 1008.5
20260503231004 74 214 1.0 6.0 0.00 0.01 0.01 30 1008.5
20260503230504 74 277 2.0 6.0 0.00 0.01 0.01 29 1008.5
20260503230003 74 245 3.0 12.0 0.00 0.01 0.01 30 1008.5
20260503225504 74 273 4.0 6.0 0.00 0.01 0.01 31 1008.5
20260503225004 74 265 2.0 3.0 0.00 0.01 0.01 29 1008.6
20260503224504 75 331 3.0 6.0 0.00 0.01 0.01 28 1008.7
20260503224004 75 281 3.0 8.0 0.00 0.01 0.01 33 1008.7
20260503223503 74 259 2.0 6.0 0.00 0.01 0.01 31 1008.8
20260503223005 74 232 2.0 8.0 0.00 0.01 0.01 32 1008.8
20260503222504 74 278 3.0 8.0 0.00 0.01 0.01 31 1008.8
20260503222004 74 255 3.0 7.0 0.00 0.01 0.01 31 1008.8
20260503221504 74 283 2.0 7.0 0.00 0.01 0.01 33 1008.9
20260503221005 74 268 1.0 7.0 0.00 0.01 0.01 31 1008.9
20260503220504 75 204 2.0 6.0 0.00 0.01 0.01 31 1009.0
20260503220004 74 266 3.0 10.0 0.00 0.01 0.01 32 1009.0
20260503215504 74 282 4.0 8.0 0.00 0.01 0.01 31 1009.1
20260503215005 74 234 3.0 8.0 0.00 0.01 0.01 30 1009.1
20260503214504 74 275 1.0 8.0 0.00 0.01 0.01 31 1009.2
20260503214004 75 284 3.0 7.0 0.00 0.01 0.01 31 1009.3
20260503213504 74 279 3.0 8.0 0.00 0.01 0.01 33 1009.5
20260503213005 74 257 3.0 7.0 0.00 0.01 0.01 33 1009.5
20260503212504 74 231 3.0 7.0 0.00 0.01 0.01 33 1009.7
20260503212004 74 272 4.0 8.0 0.00 0.01 0.01 33 1009.6
20260503211504 74 208 3.0 6.0 0.00 0.01 0.01 31 1009.8
20260503211005 74 286 5.0 10.0 0.00 0.01 0.01 30 1009.7
20260503210504 74 262 2.0 8.0 0.00 0.01 0.01 34 1009.9
20260503210004 74 209 3.0 8.0 0.00 0.01 0.01 35 1009.9
20260503205504 74 274 1.0 8.0 0.00 0.01 0.01 31 1010.0
20260503205004 74 227 1.0 6.0 0.00 0.01 0.01 31 1010.1
20260503204504 73 217 2.0 5.0 0.00 0.01 0.01 33 1010.1
20260503204004 73 286 3.0 10.0 0.00 0.01 0.01 30 1010.2
20260503203504 73 251 3.0 8.0 0.00 0.01 0.01 34 1010.3
20260503203004 73 271 4.0 9.0 0.00 0.01 0.01 33 1010.4
20260503202504 74 280 4.0 9.0 0.00 0.01 0.01 30 1010.4
20260503202004 74 284 3.0 10.0 0.00 0.01 0.01 35 1010.4
20260503201504 74 275 1.0 6.0 0.00 0.01 0.01 35 1010.5
20260503201004 73 237 2.0 6.0 0.00 0.01 0.01 32 1010.5
20260503200504 73 203 2.0 5.0 0.00 0.01 0.01 33 1010.5
20260503200005 73 174 1.0 6.0 0.00 0.01 0.01 31 1010.6
20260503195505 73 301 2.0 3.0 0.00 0.01 0.01 32 1010.6
20260503195005 73 332 3.0 7.0 0.00 0.01 0.01 30 1010.7
20260503194504 73 284 6.0 13.0 0.00 0.01 0.01 32 1010.8
20260503194005 73 276 6.0 14.0 0.00 0.01 0.01 32 1010.9
20260503193505 73 225 3.0 7.0 0.00 0.01 0.01 33 1010.8
20260503193005 73 265 6.0 12.0 0.00 0.01 0.01 33 1010.9
20260503192504 73 294 3.0 7.0 0.00 0.01 0.01 36 1010.9
20260503192005 73 250 3.0 9.0 0.00 0.01 0.01 31 1010.9
20260503191504 73 253 2.0 8.0 0.00 0.01 0.01 34 1011.0
20260503191004 73 260 2.0 9.0 0.00 0.01 0.01 37 1011.1
20260503190504 73 313 2.0 3.0 0.00 0.01 0.01 34 1011.1
20260503190005 73 223 4.0 12.0 0.00 0.01 0.01 34 1011.2
20260503185505 73 294 5.0 9.0 0.00 0.01 0.01 34 1011.2
20260503185004 73 351 3.0 8.0 0.00 0.01 0.01 32 1011.1
20260503184504 73 259 4.0 9.0 0.00 0.01 0.01 33 1011.2
20260503184005 73 289 1.0 3.0 0.00 0.01 0.01 34 1011.3
20260503183504 72 283 3.0 7.0 0.00 0.02 0.01 35 1011.4
20260503183004 72 267 3.0 7.0 0.00 0.02 0.01 34 1011.5
20260503182505 72 268 4.0 12.0 0.00 0.02 0.01 34 1011.6
20260503182005 71 257 1.0 5.0 0.00 0.02 0.01 34 1011.6
20260503181505 72 335 2.0 8.0 0.00 0.02 0.01 34 1011.7
20260503181004 71 355 3.0 7.0 0.00 0.02 0.01 34 1011.7
20260503180504 71 274 5.0 9.0 0.00 0.02 0.01 35 1011.8
20260503180004 71 292 2.0 7.0 0.00 0.02 0.01 36 1011.9
20260503175504 71 323 3.0 20.0 0.00 0.02 0.01 37 1012.0
20260503175004 71 260 1.0 6.0 0.00 0.02 0.01 37 1012.1
20260503174504 70 268 2.0 8.0 0.00 0.02 0.01 38 1012.2
20260503174005 70 317 2.0 8.0 0.00 0.02 0.01 36 1012.3
20260503173504 70 288 2.0 9.0 0.00 0.02 0.01 37 1012.3
20260503173004 69 21 3.0 9.0 0.00 0.02 0.01 39 1012.4
20260503172504 69 315 4.0 10.0 0.00 0.02 0.01 38 1012.5
20260503172004 69 268 5.0 9.0 0.00 0.02 0.01 36 1012.5
20260503171504 69 316 4.0 8.0 0.00 0.02 0.01 38 1012.4
20260503171004 69 267 3.0 8.0 0.00 0.02 0.01 40 1012.5
20260503170504 69 283 3.0 8.0 0.00 0.02 0.01 39 1012.5
20260503151004 63 301 3.0 7.0 0.01 0.02 0.01 46 1012.1
20260503150504 63 307 3.0 9.0 0.01 0.02 0.01 46 1012.0